Weather History for Fort Benning, GA

Change the Weather History Date:

Tuesday, February 5, 2013

  Actual Average Record
Temperature  
Mean Temperature 55 °F -  
Max Temperature 71 °F 58 °F 77 °F (2008)
Min Temperature 39 °F 34 °F 15 °F (2009)
Degree Days  
Heating Degree Days 10    
Growing Degree Days 5 (Base 50)    
Moisture  
Dew Point 46 °F    
Average Humidity 91    
Maximum Humidity 100    
Minimum Humidity 42    
Precipitation  
Precipitation 0.00 in - - ()
Sea Level Pressure  
Sea Level Pressure 30.04 in    
Wind  
Wind Speed 1 mph (SSE)    
Max Wind Speed 10 mph    
Max Gust Speed 17 mph    
Visibility 5 miles    
Events Fog    
Averages and records for this station are not official NWS values.
T = Trace of Precipitation, MM = Missing Value Source: NWS Daily Summary

Daily Weather History Graph

Daily Weather History Graph

Search for Another Location

Airport:

Trip Planner

Search our weather history database for the weather conditions in past years. The results will help you decide how hot, cold, wet, or windy it might be!

Date:

Astronomy

Feb. 05, 2013 Rise Set
Actual Time 7:31 AM EST 6:17 PM EST
Civil Twilight 7:05 AM EST 6:42 PM EST
Nautical Twilight 6:36 AM EST 7:12 PM EST
Astronomical Twilight 6:07 AM EST 7:40 PM EST
Moon 3:05 AM EST (2/5) 1:40 PM EST (2/5)
Length of Visible Light 11h 37m
Length of Day
10h 46m
Waning Crescent, 27% of the Moon is Illuminated
Feb 5
Waning Crescent
Feb 10
New
Feb 17
First Quarter
Feb 25
Full
Mar 4
Last Quarter

Hourly Weather History & Observations

Time (EST) Temp. Windchill Dew Point Humidity Pressure Visibility Wind Dir Wind Speed Gust Speed Precip Events Conditions
12:55 AM 39.2 °F - 36.7 °F 91% 30.01 in 10.0 mi Calm Calm - N/A   Overcast
1:55 AM 39.2 °F - 37.4 °F 93% 30.02 in 10.0 mi Calm Calm - N/A   Overcast
2:55 AM 40.3 °F - 37.8 °F 91% 30.00 in 10.0 mi Calm Calm - N/A   Mostly Cloudy
3:55 AM 40.5 °F - 38.8 °F 94% 30.00 in 10.0 mi Calm Calm - N/A   Mostly Cloudy
4:55 AM 40.3 °F - 38.5 °F 93% 30.00 in 10.0 mi Calm Calm - N/A   Mostly Cloudy
5:55 AM 40.5 °F 38.4 °F 38.8 °F 94% 30.00 in 10.0 mi NNW 3.5 mph - N/A   Overcast
6:55 AM 41.2 °F - 39.2 °F 93% 30.02 in 10.0 mi Calm Calm - N/A   Overcast
7:55 AM 40.3 °F - 38.1 °F 92% 30.04 in 10.0 mi Calm Calm - N/A   Scattered Clouds
8:55 AM 44.6 °F - 40.5 °F 85% 30.06 in 10.0 mi Calm Calm - N/A   Clear
9:55 AM 53.2 °F - 44.2 °F 72% 30.06 in 10.0 mi Calm Calm - N/A   Clear
10:55 AM 62.1 °F - 48.0 °F 60% 30.06 in 10.0 mi Variable 5.8 mph - N/A   Clear
11:55 AM 65.1 °F - 47.5 °F 53% 30.05 in 10.0 mi SW 5.8 mph - N/A   Mostly Cloudy
12:55 PM 68.0 °F - 47.7 °F 48% 30.02 in 10.0 mi Calm Calm - N/A   Scattered Clouds
1:55 PM 71.1 °F - 47.1 °F 42% 29.99 in 10.0 mi Variable 5.8 mph - N/A   Clear
2:55 PM 71.2 °F - 47.5 °F 43% 29.97 in 10.0 mi Variable 4.6 mph - N/A   Scattered Clouds
3:55 PM 70.0 °F - 50.9 °F 51% 29.97 in 10.0 mi SSW 10.4 mph 17.3 mph N/A   Mostly Cloudy
4:55 PM 68.9 °F - 51.4 °F 54% 29.97 in 10.0 mi SSW 4.6 mph - N/A   Mostly Cloudy
5:55 PM 65.8 °F - 52.3 °F 62% 29.97 in 10.0 mi Calm Calm - N/A   Overcast
6:55 PM 62.2 °F - 52.2 °F 70% 29.98 in 10.0 mi South 3.5 mph - N/A   Partly Cloudy
7:55 PM 55.9 °F - 51.1 °F 84% 30.01 in 10.0 mi Calm Calm - N/A   Clear
8:55 PM 52.9 °F - 50.7 °F 92% 30.02 in 10.0 mi Calm Calm - N/A   Clear
9:55 PM 50.0 °F - 49.3 °F 97% 30.04 in 10.0 mi Calm Calm - N/A   Clear
10:43 PM 48.2 °F - 48.2 °F 100% 30.05 in 2.5 mi Calm Calm - N/A   Clear
10:45 PM 48.2 °F - 48.2 °F 100% 30.05 in 2.5 mi Calm Calm - N/A   Clear
10:46 PM 48.2 °F - 48.2 °F 100% 30.04 in 2.5 mi Calm Calm - N/A   Clear
10:47 PM 48.2 °F - 48.2 °F 100% 30.04 in 3.0 mi Calm Calm - N/A   Clear
10:55 PM 46.8 °F - 46.2 °F 98% 30.05 in 2.0 mi Calm Calm - N/A   Clear
10:56 PM 46.4 °F - 46.4 °F 100% 30.05 in 1.5 mi Calm Calm - N/A   Clear
10:57 PM 46.4 °F - 44.6 °F 93% 30.05 in 1.2 mi Calm Calm - N/A   Clear
10:58 PM 46.4 °F - 44.6 °F 93% 30.05 in 1.2 mi Calm Calm - N/A   Clear
10:59 PM 44.6 °F - 44.6 °F 100% 30.05 in 1.0 mi Calm Calm - N/A   Clear
11:02 PM 44.6 °F - 44.6 °F 100% 30.05 in 0.8 mi Calm Calm - N/A   Clear
11:03 PM 44.6 °F - 44.6 °F 100% 30.05 in 0.8 mi Calm Calm - N/A   Clear
11:07 PM 44.6 °F - 44.6 °F 100% 30.05 in 1.0 mi Calm Calm - N/A   Clear
11:08 PM 46.4 °F - 44.6 °F 93% 30.05 in 0.8 mi Calm Calm - N/A   Clear
11:09 PM 46.4 °F - 46.4 °F 100% 30.05 in 0.8 mi Calm Calm - N/A   Clear
11:12 PM 46.4 °F - 46.4 °F 100% 30.05 in 0.8 mi Calm Calm - N/A   Clear
11:13 PM 46.4 °F - 46.4 °F 100% 30.05 in 0.8 mi Calm Calm - N/A   Clear
11:14 PM 46.4 °F - 46.4 °F 100% 30.05 in 1.0 mi Calm Calm - N/A   Clear
11:15 PM 46.4 °F - 46.4 °F 100% 30.05 in 1.0 mi Calm Calm - N/A   Clear
11:17 PM 46.4 °F - 46.4 °F 100% 30.05 in 1.2 mi Calm Calm - N/A   Clear
11:18 PM 46.4 °F - 46.4 °F 100% 30.05 in 1.5 mi Calm Calm - N/A   Clear
11:19 PM 46.4 °F - 46.4 °F 100% 30.05 in 2.0 mi Calm Calm - N/A   Clear
11:20 PM 46.4 °F - 46.4 °F 100% 30.05 in 4.0 mi Calm Calm - N/A   Clear
11:34 PM 46.4 °F - 46.4 °F 100% 30.05 in 2.5 mi Calm Calm - N/A   Clear
11:35 PM 46.4 °F - 46.4 °F 100% 30.05 in 1.8 mi Calm Calm - N/A   Clear
11:36 PM 46.4 °F - 46.4 °F 100% 30.05 in 1.5 mi Calm Calm - N/A   Clear
11:37 PM 46.4 °F - 46.4 °F 100% 30.05 in 1.2 mi Calm Calm - N/A   Clear
11:38 PM 46.4 °F 45.2 °F 46.4 °F 100% 30.05 in 1.0 mi SE 3.5 mph - N/A   Clear
11:39 PM 46.4 °F 45.2 °F 46.4 °F 100% 30.05 in 0.8 mi SSE 3.5 mph - N/A   Clear
11:40 PM 46.4 °F 45.2 °F 46.4 °F 100% 30.05 in 0.8 mi SE 3.5 mph - N/A   Clear
11:41 PM 46.4 °F - 46.4 °F 100% 30.05 in 0.5 mi Calm Calm - N/A Fog Fog
11:46 PM 46.4 °F 45.2 °F 46.4 °F 100% 30.05 in 0.5 mi ESE 3.5 mph - N/A Fog Fog
11:48 PM 46.4 °F 45.2 °F 46.4 °F 100% 30.05 in 0.8 mi ESE 3.5 mph - N/A   Clear
11:49 PM 46.4 °F 45.2 °F 46.4 °F 100% 30.05 in 0.8 mi SE 3.5 mph - N/A   Clear
11:51 PM 46.4 °F 45.2 °F 46.4 °F 100% 30.05 in 1.0 mi SE 3.5 mph - N/A   Clear
11:52 PM 46.4 °F - 46.4 °F 100% 30.05 in 1.5 mi Calm Calm - N/A   Clear
11:53 PM 46.4 °F - 46.4 °F 100% 30.05 in 2.0 mi Calm Calm - N/A   Partly Cloudy
11:54 PM 46.4 °F - 46.4 °F 100% 30.05 in 3.0 mi Calm Calm - N/A   Partly Cloudy
11:55 PM 46.6 °F - 46.4 °F 99% 30.05 in 4.0 mi Calm Calm - N/A   Partly Cloudy
11:59 PM 46.4 °F - 46.4 °F 100% 30.05 in 2.0 mi Calm Calm - N/A   Scattered Clouds